Tracking 29892 objects as of 21-Nov-2024
HD Live streaming from Space Station
objects crossing your sky now

FENGYUN 1C DEB

Track FENGYUN 1C DEB now!
10-day predictions


NORAD ID: 30863
Int'l Code: 1999-025AWZ
Perigee: 817.8 km
Apogee: 2,221.2 km
Inclination: 99.1 °
Period: 116.3 minutes
Semi major axis: 7890 km
RCS: 0.0087 m2 (small)
Launch date: May 10, 1999
Source: People's Republic of China (PRC)
Launch site: Taiyaun Space Center, China (TSC)

Note: This is SATELLITE DEBRIS
Your satellite tracking list
Your tracking list is empty




NASA's NSSDC Master Catalog

Two Line Element Set (TLE):
1 30863U 99025AWZ 24324.72132458  .00005406  00000-0  10318-1 0  9991
2 30863  99.1437 241.2960 0889260 346.1755  35.9924 12.38647374549323
Source of the keplerian elements: AFSPC